This is the latest recevied weather packets stored in our database for station/object IV3CGM-13. If no packets are shown the sender has not sent any weather packets the latest 10 day(s).
| Time | Temp. | Humidity | Pressure | Rain* | Wind** | Luminosity | Snow |
|---|---|---|---|---|---|---|---|
| 1777694359 | 10° C | 65% | 1025.3 hPa | 0 mm | - | 6 W/m² | - |
| 1777693672 | 10° C | 67% | 1025.3 hPa | 0 mm | - | 2 W/m² | - |
| 1777692984 | 10.56° C | 58% | 1025.3 hPa | 0 mm | - | 0 W/m² | - |
| 1777692247 | 10.56° C | 62% | 1025.3 hPa | 0 mm | - | 0 W/m² | - |
| 1777691546 | 10.56° C | 57% | 1025.3 hPa | 0 mm | - | 0 W/m² | - |
| 1777690859 | 10.56° C | 68% | 1025.4 hPa | 0 mm | - | 0 W/m² | - |
| 1777690171 | 10.56° C | 60% | 1025.4 hPa | 0 mm | - | 0 W/m² | - |
| 1777689483 | 10.56° C | 58% | 1025.5 hPa | 0 mm | - | 0 W/m² | - |
| 1777688746 | 10.56° C | 57% | 1025.5 hPa | 0 mm | - | 0 W/m² | - |
| 1777688046 | 10° C | 63% | 1025.5 hPa | 0 mm | - | 0 W/m² | - |
| 1777687358 | 10° C | 65% | 1025.6 hPa | 0 mm | - | 0 W/m² | - |
| 1777686670 | 10.56° C | 56% | 1025.6 hPa | 0 mm | - | 0 W/m² | - |
| 1777685983 | 10.56° C | 64% | 1025.8 hPa | 0 mm | - | 0 W/m² | - |
| 1777685246 | 10.56° C | 63% | 1025.8 hPa | 0 mm | - | 0 W/m² | - |
| 1777684546 | 10° C | 65% | 1025.8 hPa | 0 mm | - | 0 W/m² | - |
| 1777683858 | 10.56° C | 62% | 1025.7 hPa | 0 mm | - | 0 W/m² | - |
| 1777683170 | 10.56° C | 60% | 1025.8 hPa | 0 mm | - | 0 W/m² | - |
| 1777682483 | 10.56° C | 60% | 1025.8 hPa | 0 mm | - | 0 W/m² | - |
| 1777681795 | 11.11° C | 58% | 1025.8 hPa | 0 mm | - | 0 W/m² | - |
| 1777681108 | 10.56° C | 57% | 1025.9 hPa | 0 mm | - | 0 W/m² | - |
| 1777680433 | 11.11° C | 63% | 1025.8 hPa | 0 mm | - | 0 W/m² | - |
| 1777679733 | 11.67° C | 56% | 1025.8 hPa | 0 mm | - | 0 W/m² | - |
| 1777679045 | 12.22° C | 53% | 1025.8 hPa | 0 mm | - | 0 W/m² | - |
| 1777678357 | 11.67° C | 51% | 1025.9 hPa | 0 mm | - | 0 W/m² | - |
| 1777677670 | 11.67° C | 56% | 1025.8 hPa | 0 mm | - | 0 W/m² | - |
* Rain latest hour (hover to see other rain measurements)
** Current wind speed in m/s (hover to see current wind gust speed)